Simultaneous Nadir Overpasses (SNOs) Predictions

Prediction of SNOs between METOP-A and TERRA Satellite Orbit:

Table of predicted SNOs for the next 14.0 days since TLE Epoch: 10/4/2014
Index Date (METOP-A) Time (METOP-A) Lat,Lon (METOP-A) SZA (METOP-A ) Date (TERRA) Time (TERRA) Lat,Lon (TERRA) SZA (TERRA ) Distance(km) Time Diff (sec)
1 10/06/2014 16:08:40 -81.28, 164.17 90.48 10/06/2014 16:09:52 -81.28, 164.35 90.43 2.97 72
2 10/06/2014 16:59:20 81.29, -28.01 89.60 10/06/2014 16:59:18 81.29, -27.93 89.61 1.34 2
3 10/06/2014 17:49:50 -81.33, 143.36 89.89 10/06/2014 17:48:36 -81.46, 143.12 89.88 15.38 74
4 10/09/2014 11:43:00 -81.28,-129.25 89.37 10/09/2014 11:44:07 -81.29,-129.19 89.33 0.92 67
5 10/09/2014 12:33:40 81.29, 38.55 90.71 10/09/2014 12:33:33 81.29, 38.50 90.69 0.93 7
6 10/12/2014 07:17:21 -81.28, -62.73 88.28 10/12/2014 07:18:22 -81.29, -62.62 88.23 2.13 61
7 10/12/2014 08:08:01 81.29, 105.04 91.79 10/12/2014 08:07:48 81.29, 105.04 91.79 0.38 13
8 10/15/2014 02:51:42 -81.29, 3.72 87.21 10/15/2014 02:52:37 -81.29, 3.70 87.19 0.46 55
9 10/15/2014 03:42:22 81.29, 171.46 92.86 10/15/2014 03:42:03 81.29, 171.33 92.83 2.32 19
10 10/17/2014 22:26:02 -81.28, 70.11 86.17 10/17/2014 22:26:50 -81.29, 70.14 86.15 0.46 48




NCC Satellite Simultaneous Nadir Overpasses (SNOs) Prediction Service
